Current Version              Previous Version:    01  02  03  04  05  06  07  08  09  10  11  12  13  14  15  16  17  18  19  20  21  22  23  24  25  26  27  28  29  30  
   31  32  33  34  35  36  37  38  39  40  41  42  43  44  45  46  47  48  49  50  51  52  53  54  55  56  57  58  59  60  

[Printable]
702
ASUS44 KEWX 291502
RWRTX
SOUTH TEXAS REGIONAL WEATHER ROUNDUP
NATIONAL WEATHER SERVICE AUSTIN/SAN ANTONIO TX
1000 AM CDT TUE JUL 29 2014

NOTE: "FAIR" INDICATED FEW OR NO CLOUDS BELOW 12,000 FEET WITH NO
SIGNIFICANT WEATHER AND/OR OBSTRUCTIONS TO VISIBILITY.

* - THESE STATIONS ARE NOT NWS OR FAA STATIONS...AND ARE NOT SUBJECT
    TO NWS AND FAA QUALITY CONTROL.

TXZ171-172-183>190-291600-
TEXAS HILL COUNTRY AND EDWARDS PLATEAU

CITY           SKY/WX    TMP DP  RH WIND       PRES   REMARKS
JUNCTION       SUNNY     81  67  62 E6        30.16R
*LLANO         SUNNY     82  72  69 CALM      30.17S
BURNET         SUNNY     82  69  64 VRB5      30.17R
*HORSESHOE BAY SUNNY     83  68  58 CALM      30.13F
*KERRVILLE     SUNNY     82  67  60 S5        30.16R
*FREDERICKSBRG SUNNY     83  61  47 CALM      30.16S
*ROCKSPRINGS   SUNNY     81  66  61 SE7       30.20R
*BOERNE STAGE  SUNNY     82  64  54 CALM      30.15S
*CASTROVILLE   SUNNY     83  69  61 CALM      30.13S
HONDO          SUNNY     82  71  69 MISG      30.14R
*UVALDE        SUNNY     82  71  69 E6        30.12S
DEL RIO        SUNNY     85  68  56 SE10      30.08F
LAUGHLIN AFB   SUNNY     84  69  61 SE10      30.10S
CARRIZO SPRGS  SUNNY     82  68  61 SE8       30.08R
$$

TXZ173-191>194-202-209-217>225-228-291600-
CENTRAL AND SOUTH CENTRAL TEXAS

CITY           SKY/WX    TMP DP  RH WIND       PRES   REMARKS
GEORGETOWN     SUNNY     81  72  74 E6        30.14S
AUSTIN/BERGSTM MOSUNNY   85  72  65 VRB5      30.12R HX  91
AUSTIN/MABRY   SUNNY     83  72  69 VRB3      30.13R
*AUSTIN/EXEC   SUNNY     82  72  69 CALM      30.12F
*LAGO VISTA    SUNNY     84  69  61 CALM      30.15S
SAN MARCOS     NOT AVBL
NEW BRAUNFELS  SUNNY     85  69  58 W5        30.10S
RANDOLPH AFB   SUNNY     85  68  56 SW2       30.12R
PT SAN ANTONIO SUNNY     83  72  68 S2        30.11R
SAN ANTONIO    MOSUNNY   85  70  60 CALM      30.12R
STINSON FIELD  SUNNY     82  72  71 CALM      30.10R
*PLEASANTON    SUNNY     84  71  64 CALM      30.11S
*LA GRANGE     PTSUNNY   86  74  67 CALM      30.09S HX  93
*GIDDINGS      PTSUNNY   83  70  63 CALM      30.15S
*GONZALES      PTSUNNY   85  73  66 W5        30.10F HX  92
$$

TXZ163>164-176>182-195>201-210>213-226-227-235-291600-
SOUTHEAST TEXAS

CITY           SKY/WX    TMP DP  RH WIND       PRES   REMARKS
COLLEGE STN    PTSUNNY   81  71  71 E5        30.12R
*BRYAN         CLOUDY    81  72  76 CALM      30.11S
*CALDWELL      PTSUNNY   81  72  74 CALM      30.15R
*CROCKETT      PTSUNNY   84  75  74 NE7       30.15R HX  92
*BRENHAM       PTSUNNY   81  72  72 CALM      30.12R
HUNTSVILLE     PTSUNNY   78  72  81 CALM      30.12R
CONROE         PTSUNNY   82  73  74 VRB3      30.11R
HOUSTON BUSH   PTSUNNY   86  74  67 NW8       30.09R HX  94
HOUSTON HOBBY  MOSUNNY   87  70  56 NW7       30.09R HX  92
*HOUSTON SW AP MOSUNNY   86  73  64 W7        30.10S HX  92
PEARLAND       PTSUNNY   85  73  67 W9        30.11R HX  91
HOUSTON HOOKS  MOSUNNY   84  76  76 N5        30.10R HX  93
ELLINGTON FLD  PTSUNNY   90  75  62 W7        30.10S HX 100
SUGAR LAND     CLOUDY    86  74  67 W7        30.10R HX  94
*HOUSTON EXEC  MOSUNNY   86  73  66 W7        30.11S HX  93
*CLEVELAND MUN CLOUDY    80  75  85 CALM      30.11R
*WHARTON       MOSUNNY   84  74  70 W7        30.11R HX  91
$$

TXZ214>216-236>238-291600-
THE UPPER TEXAS COAST

CITY           SKY/WX    TMP DP  RH WIND       PRES   REMARKS
*ORANGE        CLOUDY    81  73  76 NE3       30.11R
PORT ARTHUR    CLOUDY    82  74  76 VRB5      30.09R
GALVESTON      MOSUNNY   85  76  74 NW8       30.10R HX  94
ANGLETON       MOSUNNY   84  76  76 VRB6      30.10R HX  93
*BAY CITY      MOSUNNY   85  79  84 NW8       30.10R HX  97
PALACIOS       MOSUNNY   83  75  77 VRB3      30.10R HX  90
$$

TXZ229>234-239>247-291600-
TEXAS COASTAL BEND AND RIO GRANDE PLAINS

CITY           SKY/WX    TMP DP  RH WIND       PRES   REMARKS
VICTORIA       MOSUNNY   84  75  74 W5        30.10F HX  92
*BEEVILLE      MOSUNNY   85  74  68 SW8       30.09S HX  92
ROCKPORT       SUNNY     84  75  74 SW6       30.08F HX  92
*PORT ARANSAS  MOSUNNY   82  76  81 S8        30.09S HX  90
*PORT LAVACA   NOT AVBL
*INGLESIDE     MOSUNNY   86  74  67 SW10      30.09S HX  95
CORPUS CHRISTI MOSUNNY   85  75  72 S12       30.09S HX  93
CORPUS NAS     MOSUNNY   86  76  71 S12       30.09R HX  96
*ROBSTOWN      NOT AVBL
ALICE          MOSUNNY   85  75  72 S14       30.08F HX  93
KINGSVILLE NAS MOSUNNY   87  76  69 S10G21    30.09S HX  97
COTULLA        SUNNY     84  69  60 SE9       30.09R
*FAITH RANCH   SUNNY     81  70  69 MISG      30.09R
LAREDO         SUNNY     85  72  65 VRB6      30.10R HX  91
$$

TXZ248>255-291600-
DEEP SOUTH TEXAS

CITY           SKY/WX    TMP DP  RH WIND       PRES   REMARKS
BROWNSVILLE    MOSUNNY   88  75  65 S9        30.08F HX  97
PORT ISABEL    MOSUNNY   87  74  64 SE9       30.08S HX  95
*SOUTH PADRE   SUNNY     84  77  79 E3        30.09S HX  94
HARLINGEN      MOSUNNY   88  76  67 S9        30.07F HX  99
*HEBBRONVILLE  SUNNY     82  72  72 S9        30.10S
MCALLEN        MOSUNNY   86  76  71 SE14      30.08F HX  96
*WESLACO       PTSUNNY   87  74  66 S10G16    30.08F HX  95
FALFURRIAS     PTSUNNY   67  32  26 S12       30.08S
EDINBURG       PTSUNNY   88  75  64 S9        30.09S HX  97
*ZAPATA        NOT AVBL
$$

TXZ213>215-236>238-242>244-246-247-251-254-255-291600-
CMAN STATIONS

STATION/POSITION TIME  TEMP    WIND        PRES    WAVE
                       AIR SEA DIR/SP/G            HT/PER
                 (UTC) (F)     (DEG/KT/KT) (MB)    (FT/S)
SABINE PASS      1400   81 87   50/  5/  6 1019.0
SEA RIM ST PARK  1400   81      30/  3/  5 1019.0
NORTH JETTY/GLS  1400   83 89  340/  7/ 10   N/A
EAGLE POINT      1400   83 88  290/  3/  7 1019.0
MORGANS POINT    1400   85 91  310/  7/ 10 1018.7
MISSION/ARANSAS  1400   80     210/  7     1020.0
PORT O`CONNOR    1400          230/  4/  6   N/A
PORT ARANSAS     1400   81 82  170/  4/  5 1019.5
MALAQUITE BEACH  1400   78 75  130/  4/  6 1018.5
BAFFIN BAY       1400   81 81  150/  5/  7 1019.1
PORT ISABEL      1400   84 81  130/  7/  9 1019.2
$$

GMZ080-GMZ150>470-291600-
OFFSHORE BUOY REPORTS

STATION/POSITION TIME  TEMP    WIND        PRES    WAVE
                       AIR SEA DIR/SP/G            HT/PER
                 (UTC) (F)     (DEG/KT/KT) (MB)    (FT/S)
90 E PT ARANSAS  1500   83 83  290/  4/  6 1019.5    2/ 6
35 NE PT MANSFLD 1400   82 84  190/  8/ 10 1018.8    2/ 5
200 E PT ISABEL  1400   84 85  290/  4/  6 1019.0    1/ 4
$$